Tracking 19832 objects as of 25-Aug-2019
HD Live streaming from Space Station
objects crossing your sky now

FENGYUN 1C DEB

Track FENGYUN 1C DEB now!
10-day predictions


NORAD ID: 36153
Int'l Code: 1999-025DSA
Perigee: 777.0 km
Apogee: 842.8 km
Inclination: 98.7 °
Period: 100.9 minutes
Semi major axis: 7180 km
RCS: 0.0062 m2 (small)
Launch date: May 10, 1999
Source: People's Republic of China (PRC)
Launch site: Taiyaun Space Center, China (TSC)

Note: This is SATELLITE DEBRIS
aabbcc
Your satellite tracking list
Your tracking list is empty




NASA's NSSDC Master Catalog

Two Line Element Set (TLE):
1 36153U 99025DSA 19231.14405899 +.00000426 +00000-0 +19226-3 0  9994
2 36153 098.7362 291.6705 0045820 013.3077 014.6491 14.26720550541462
Source of the keplerian elements: AFSPC